International Virtual Aviation Organisation

Russian Federation and Kazakhstan MCD

 

Карточка аэропорта UAAA

Внимание!
Информация на этой странице в стадии наполнения.
Если вы не увидели какой-то информации, или заметили неточность - пожалуйста сообщите нам!
Спасибо!
Команда RU-STAFF
Название аэропортаАлматы
Название аэропорта (англ.)Almaty
Превышение2238 ft. (682.1 m.)
Координаты43°21.072', 77°1.5960000000001'
Высота перехода600
Эшелон переходаFL070
Коды ответчика3501-3517, 3401-3427
Зона ОрВДАлматы РПИ (UAAA)
Данные METARUAAA 091400Z 10002MPS 9999 SCT050CB BKN100 28/10 Q1005 R05R/CLRD65 NOSIG
Проноз погоды (TAF)UAAA 091100Z 0912/1012 16003MPS 9999 SCT050CB BKN100 TX32/1009Z TN20/1001Z TEMPO 0913/1001 22004G12MPS -TSRA BKN040CB OVC100 BECMG 1001/1002 32003G08MPS TEMPO 1002/1012 24003G10MPS
NOTAMshow/hide NOTAM
AWOS   TABLE

Информация о ВПП

ВПП Длина ВПП (м.) Покрытие Курс ВПП Частота ILS
05L4500Бетон51109.1
23R4500Бетон231111.3
05R4400Асфальтобетон51110.3
23L4400Асфальтобетон231108.1

Диспетчерские позиции

Позывной Наименование органа УВД Частота
UAAA_APPАлматы-Подход124.8
UAAA_TWRАлматы-Вышка119.4
UAAA_GNDАлматы-Руление121.7
UAAA_R_APPАлматы-Круг120.8



Спутниковое изображение